TimeEDT,TemperatureF,Dew PointF,Humidity,Sea Level PressureIn,VisibilityMPH,Wind Direction,Wind SpeedMPH,Gust SpeedMPH,PrecipitationIn,Events,Conditions,WindDirDegrees,DateUTC
12:53 AM,70.0,68.0,93,29.86,10.0,Calm,Calm,-,N/A,,Clear,0,2012-09-06 04:53:00
1:53 AM,70.0,68.0,93,29.87,8.0,Calm,Calm,-,N/A,,Clear,0,2012-09-06 05:53:00
2:53 AM,69.1,66.9,93,29.87,7.0,Calm,Calm,-,N/A,,Partly Cloudy,0,2012-09-06 06:53:00
3:53 AM,66.9,66.0,97,29.87,4.0,Calm,Calm,-,N/A,,Clear,0,2012-09-06 07:53:00
4:08 AM,66.2,66.2,100,29.89,3.0,Calm,Calm,-,N/A,,Partly Cloudy,0,2012-09-06 08:08:00
4:13 AM,66.2,66.2,100,29.89,1.8,Calm,Calm,-,N/A,,Clear,0,2012-09-06 08:13:00
4:17 AM,66.2,66.2,100,29.89,0.8,Calm,Calm,-,N/A,,Clear,0,2012-09-06 08:17:00
4:31 AM,66.2,64.4,94,29.89,0.8,Calm,Calm,-,N/A,,Mist,0,2012-09-06 08:31:00
4:33 AM,66.2,64.4,94,29.89,1.2,Calm,Calm,-,N/A,,Clear,0,2012-09-06 08:33:00
4:41 AM,64.4,64.4,100,29.89,4.0,Calm,Calm,-,N/A,,Clear,0,2012-09-06 08:41:00
4:44 AM,64.4,64.4,100,29.89,1.8,Calm,Calm,-,N/A,,Clear,0,2012-09-06 08:44:00
4:50 AM,66.2,64.4,94,29.89,0.8,Calm,Calm,-,N/A,,Clear,0,2012-09-06 08:50:00
4:53 AM,66.0,64.9,96,29.87,0.8,Calm,Calm,-,N/A,,Clear,0,2012-09-06 08:53:00
4:59 AM,64.4,64.4,100,29.89,1.0,SE,3.5,-,N/A,,Mist,130,2012-09-06 08:59:00
5:05 AM,64.4,64.4,100,29.89,2.5,Calm,Calm,-,N/A,,Partly Cloudy,0,2012-09-06 09:05:00
5:12 AM,64.4,64.4,100,29.89,4.0,Calm,Calm,-,N/A,,Partly Cloudy,0,2012-09-06 09:12:00
5:36 AM,64.4,64.4,100,29.90,4.0,Calm,Calm,-,N/A,,Mostly Cloudy,0,2012-09-06 09:36:00
5:41 AM,64.4,64.4,100,29.89,1.8,Calm,Calm,-,N/A,,Mostly Cloudy,0,2012-09-06 09:41:00
5:49 AM,66.2,64.4,94,29.90,0.8,Calm,Calm,-,N/A,,Overcast,0,2012-09-06 09:49:00
5:53 AM,66.0,64.9,96,29.88,0.5,Calm,Calm,-,N/A,Fog,Fog,0,2012-09-06 09:53:00
6:53 AM,66.9,66.0,97,29.90,0.2,Calm,Calm,-,N/A,Fog,Fog,0,2012-09-06 10:53:00
7:53 AM,66.0,66.0,100,29.91,0.2,Calm,Calm,-,N/A,Fog,Fog,0,2012-09-06 11:53:00
8:53 AM,66.9,66.9,100,29.93,0.2,Calm,Calm,-,N/A,Fog,Fog,0,2012-09-06 12:53:00
9:14 AM,68.0,66.2,94,29.93,1.5,Calm,Calm,-,N/A,,Mostly Cloudy,0,2012-09-06 13:14:00
9:18 AM,69.8,68.0,94,29.93,3.0,Calm,Calm,-,N/A,,Mostly Cloudy,0,2012-09-06 13:18:00
9:29 AM,69.8,68.0,94,29.94,8.0,Calm,Calm,-,N/A,,Scattered Clouds,0,2012-09-06 13:29:00
9:53 AM,73.9,68.0,82,29.93,10.0,Calm,Calm,-,N/A,,Clear,0,2012-09-06 13:53:00
10:53 AM,78.1,66.0,66,29.93,10.0,Calm,Calm,-,N/A,,Clear,0,2012-09-06 14:53:00
12:53 PM,82.9,66.0,56,29.93,10.0,Variable,6.9,-,N/A,,Clear,0,2012-09-06 16:53:00
1:53 PM,84.9,64.0,49,29.91,10.0,Variable,5.8,-,N/A,,Clear,0,2012-09-06 17:53:00
2:53 PM,86.0,63.0,46,29.90,10.0,Variable,5.8,-,N/A,,Clear,0,2012-09-06 18:53:00
3:53 PM,86.0,63.0,46,29.89,10.0,WSW,8.1,-,N/A,,Clear,250,2012-09-06 19:53:00
4:53 PM,86.0,63.0,46,29.89,10.0,WSW,8.1,17.3,N/A,,Partly Cloudy,250,2012-09-06 20:53:00
5:53 PM,84.9,62.1,46,29.88,10.0,West,8.1,-,N/A,,Clear,260,2012-09-06 21:53:00
6:53 PM,82.9,64.9,54,29.88,10.0,Calm,Calm,-,N/A,,Clear,0,2012-09-06 22:53:00
7:53 PM,75.9,68.0,76,29.89,10.0,Calm,Calm,-,N/A,,Scattered Clouds,0,2012-09-06 23:53:00
8:53 PM,73.0,66.9,81,29.91,10.0,Calm,Calm,-,N/A,,Scattered Clouds,0,2012-09-07 00:53:00
9:53 PM,71.1,66.9,87,29.92,10.0,Calm,Calm,-,N/A,,Clear,0,2012-09-07 01:53:00
10:53 PM,69.1,66.9,93,29.93,10.0,Calm,Calm,-,N/A,,Clear,0,2012-09-07 02:53:00